Regional Weather Roundup
Issued by NWS

Home | Current Version | Previous Version | Text Only | Print | Product List | Glossary On
Versions: 1 2 3 4 5 6 7 8 9 10 11 12 13 14 15 16 17 18 19 20 21 22 23 24 25 26 27 28 29 30 31 32 33 34 35 36 37 38 39 40 41 42 43 44 45 46 47 48 49 50
000
ASHW40 PHFO 141843
RWRHI

WEATHER ROUNDUP FOR HAWAII
NATIONAL WEATHER SERVICE HONOLULU HI
800 AM HST SUN FEB 14 2016

THIS IS AN AUTOMATED REPORT THAT HAS NOT BEEN QUALITY CONTROLLED.

NOTE..."FAIR" INDICATES FEW OR NO CLOUDS BELOW 12,000 FEET WITH NO
SIGNIFICANT WEATHER AND/OR OBSTRUCTIONS TO VISIBILITY.

* - THESE SITES REPORT LIMITED FIELDS

HIZ001>004-141900-
KAUAI-NIIHAU-

CITY           SKY/WX    TMP DP  RH WIND       PRES   REMARKS
LIHUE APT      MOSUNNY   71  65  81 NW7       30.11R
PORT ALLEN*      N/A     66 N/A N/A N8          N/A
POIPU*           N/A     70 N/A N/A N5G14       N/A
PRINCEVILLE*     N/A     66 N/A N/A S3          N/A
KOKOLE POINT*  NOT AVBL
MOLOAA DAIRY*    N/A     70  66  88 CALM        N/A
WAIMEA HTS*      N/A     79  59  50 NE2G9       N/A
PUU OPAE*        N/A     70  57  64 N3          N/A
PUU LUA*       NOT AVBL
MAKAHA RIDGE*    N/A     70  55  60 E2G8        N/A
$$

HIZ005>011-141900-
OAHU-

CITY           SKY/WX    TMP DP  RH WIND       PRES   REMARKS
HONOLULU       MOSUNNY   75  65  70 N5        30.08R
KALAELOA       SUNNY     72  63  73 NE5       30.09R
KANEOHE MCB    MOSUNNY   76  65  68 E6        30.06R
WHEELER FIELD  PTSUNNY   69  64  84 VRB2      30.09R
BELLOWS*         N/A    N/A N/A N/A E10         N/A
KAHUKU*          N/A    N/A N/A N/A VRB8G15     N/A
WHEELER*         N/A    N/A N/A N/A SE1         N/A
WAIANAE HARBOR   N/A    N/A N/A N/A E3          N/A
DILLINGHAM*      N/A     59  57  94 MISG        N/A
KAHUKU TRN*      N/A     72  63  73 E6G15       N/A
KAWAILOA*        N/A     68  59  73 E9G16       N/A
KII*             N/A     75  66  73 E15         N/A
MAKUA RANGE*     N/A     82  77  83 E3          N/A  HX  91
OAHU FOREST NW   N/A     70  63  78 S13G25      N/A
SCHOFIELD BRK*   N/A     61  59  94 MISG        N/A
SCHOFIELD S*   NOT AVBL
WAIANAE VLY*     N/A     84  68  58 SW2G16      N/A
KUAOKALA*        N/A     75  61  60 S3G18       N/A
HONOULIUULI*   NOT AVBL
MOKUOLOE IS*   NOT AVBL
PALEHUA*         N/A     64  61  88 NE6         N/A
WAIAWA PHB*    NOT AVBL
$$

HIZ012>013-141900-
MOLOKAI-

CITY           SKY/WX    TMP DP  RH WIND       PRES   REMARKS
MOLOKAI AIRPT  MOSUNNY   72  61  68 N5        30.10R
KALAUPAPA      NOT AVBL
MAKAPULAPAI*     N/A     77  63  61 E12G18      N/A
MOLOKAI 1*     NOT AVBL
PUU ALII*        N/A     55  51  86 NE3G15      N/A
$$

HIZ016-141900-
KAHOOLAWE-

CITY           SKY/WX    TMP DP  RH WIND       PRES   REMARKS
KAHOOLAWE*       N/A     70 N/A N/A E1          N/A
HAKIOAWA*        N/A     71  62  74 MISG      30.49R
HONOKANAIA*      N/A     73  62  68 NE10G22   30.01R
KANELOA*         N/A     70  63  78 E17G26    30.13R
KEALIALALO*    NOT AVBL
LUA MAKIKA*    NOT AVBL
$$

HIZ014>015-141900-
LANAI-

CITY           SKY/WX    TMP DP  RH WIND       PRES   REMARKS
LANAI CITY     FAIR      67  62  84 E6        30.14R
LANAI 1*       NOT AVBL
$$

HIZ017>028-141900-
MAUI-

CITY           SKY/WX    TMP DP  RH WIND       PRES   REMARKS
KAHULUI        MOSUNNY   68  62  81 SE3       30.08R
KAPALUA-W MAUI MOSUNNY   70  57  64 SE10      30.08
HANA AIRPORT   NOT AVBL
HANA*            N/A     75 N/A N/A SE7G17      N/A
HALEAKALA SUMM   N/A     54 -11   6 E12         N/A
MAALAEA BAY*     N/A     68 N/A N/A N6          N/A
HALEAKALA*     NOT AVBL
KAUPO GAP*       N/A     59  48  67 E8G22       N/A
KULA 1*          N/A     53   4  13 E3          N/A
$$

HIZ023>026-141900-
BIG ISLAND OF HAWAII COAST AND LOWER SLOPES-

CITY           SKY/WX    TMP DP  RH WIND       PRES   REMARKS
KAILUA KONA    NOT AVBL
HILO           MOSUNNY   69  55  60 SW6       30.11R
HONOKAA*         N/A     66 N/A N/A VRB1        N/A
KAWAIHAE MWT*    N/A     73 N/A N/A E5          N/A
KAWAIHAE*      NOT AVBL
SOUTH POINT*     N/A     70 N/A N/A N16G24      N/A
UPOLU AIRPORT*   N/A    N/A N/A N/A SE10        N/A
KAMUELA*       NOT AVBL
HAKALAU*         N/A     57  13  17 S3G12       N/A
KALOKO-HONOKO*   N/A     75  59  57 SW2       30.05R
PALI 2*          N/A     64  52  63 N10G16      N/A
KEALAKOMO*       N/A     73  59  60 VRB8        N/A
KAUPULEHU*       N/A     75  63  64 SW2         N/A
KAPAPALA*        N/A     65  44  46 VRB8        N/A
LOWER KAHUKU*    N/A     61 N/A N/A N3G15       N/A
PUHE CS*         N/A     72  57  60 E7G13       N/A
PUHO CS*         N/A     73  53  48 NE3G10      N/A
PTA KEAMUKU*     N/A     57  54  88 CALM        N/A
WAIKOLOA*        N/A     73  57  56 SE5G12      N/A
$$

HIZ027>028-141900-
BIG ISLAND OF HAWAII INTERIOR AND SUMMMITS-

CITY           SKY/WX    TMP DP  RH WIND       PRES   REMARKS
BRADSHAW FIELD SUNNY     55   9  16 SE2       30.34R
MK VISITOR CEN   N/A     61 -35   1 E7          N/A
MAUNA KEA*       N/A     39 -20   7 S16         N/A
MAUNA LOA*       N/A     46 -36   2 MISG        N/A
MAUNA LOA 1*   NOT AVBL
PTA KIPUKA*      N/A    N/A N/A N/A SE3         N/A
PTA RANGE 17*    N/A     46  -4  12 E8G14       N/A
PTA WEST*        N/A     52  43  71 SE6G16      N/A
NENE CABIN*      N/A    N/A N/A N/A E6G15       N/A
AHUMOA*          N/A    N/A N/A N/A S3          N/A
PTA PORTABLE*  NOT AVBL
PUU MALI*        N/A     63   3   9 E16G23      N/A
$$

HIC003-141900-
NORTHWEST ISLANDS-

CITY           SKY/WX    TMP DP  RH WIND       PRES   REMARKS
MIDWAY ISLAND  CLOUDY    59  46  63 N12       30.35R
MIDWAY NOS*    NOT AVBL
FRENCH FRIGATE NOT AVBL
$$

PHZ110>124-180-141900-
BUOY REPORTS

STATION/POSITION TIME  TEMP    WIND        PRES    WAVE   SWELL
                       AIR SEA DIR/SP/G            HT/PER HT/DIR
                 (UTC) (F)     (DEG/KT/KT) (MB)    (FT/S) (FT/D)
BUOY 51001       1800   72 75  340/ 14/ 19 1020.1R
BUOY 51101       1750   72 75  350/ 14/ 17 1019.6R  12/16  11/300
BUOY 51100       NOT AVBL
BUOY 51002       1750   76 78   80/ 19/ 21 1016.2R  10/10   5/110
BUOY 51003       1750   76 78   60/  8/ 10 1018.1R   8/10   8/100
BUOY 51004       1750   76 77   80/ 19/ 23 1016.8R  10/ 8   7/340
BARBERS PT BUOY  NOT AVBL
WAIMEA BAY BUOY  1804      77                N/A     4/18   3/310
KAILUA BAY BUOY  1811      77                N/A     6/ 7   2/360
LANAI BUOY       NOT AVBL
BARBERS PT 2     1803      78                N/A     4/ 6   2/300
PAUWELA MAUI     1807      76                N/A     6/ 8   2/350
HILO             1812      77                N/A     8/10   2/120
KANEOHE BAY BUOY 1806      76                N/A     5/ 8   2/ 10
HANALEI KAUAI    1801      77                N/A     7/17   5/310
KAHULUI HARBOR   NOT AVBL
HONOLULU HARBOR  1800   76 77   CALM  /  2 1019.2R
KILO NALU        NOT AVBL
HILO HARBOR      1800   70 75  220/  9/ 11 1019.0R
MOKUOLOE         1700   75 76  100/ 10/ 14 1018.0R
NAWILIWILI       1800   68 78  240/  5/  5 1019.4R
WHOTS BUOY       NOT AVBL
BUOY 51028       NOT AVBL
$$

......................KEY........................................
  SKY/WX - SKY CONDITIONS/PRESENT WEATHER
  TMP    - TEMPERATURE IN FAHRENHEIT
  DWPT   - DEWPOINT IN FAHRENHEIT
  RH     - RELATIVE HUMIDITY IN PERCENT
  WIND   - DIRECTION AND SPEED /MPH FOR ISLANDS...KTS FOR BUOYS/
  PRES   - MEAN SEA LEVEL PRESSURE IN INCHES OF HG
  VSB    - VISIBILITY IN MILES
  HX     - HEAT INDEX
  WCI    - WIND CHILL INDEX
  VRB    - VARIABLE WIND DIRECTION
  N/A    - NOT AVAILABLE



USA.gov is the U.S. government's official web portal to all federal, state and local government web resources and services.